TimeEDT,TemperatureF,Dew PointF,Humidity,Sea Level PressureIn,VisibilityMPH,Wind Direction,Wind SpeedMPH,Gust SpeedMPH,PrecipitationIn,Events,Conditions,WindDirDegrees,DateUTC
12:26 AM,57.2,57.2,100,30.21,1.8,Calm,Calm,-,N/A,,Clear,0,2012-03-19 04:26:00
12:41 AM,57.2,57.2,100,30.21,2.0,Calm,Calm,-,N/A,,Clear,0,2012-03-19 04:41:00
12:43 AM,57.2,57.2,100,30.20,1.5,Calm,Calm,-,N/A,,Clear,0,2012-03-19 04:43:00
12:47 AM,57.2,55.4,94,30.20,0.8,Calm,Calm,-,N/A,,Clear,0,2012-03-19 04:47:00
12:54 AM,55.9,55.9,100,30.20,0.8,Calm,Calm,-,N/A,,Clear,0,2012-03-19 04:54:00
1:15 AM,55.4,55.4,100,30.20,1.2,Calm,Calm,-,N/A,,Clear,0,2012-03-19 05:15:00
1:23 AM,57.2,57.2,100,30.20,0.8,Calm,Calm,-,N/A,,Clear,0,2012-03-19 05:23:00
1:35 AM,57.2,55.4,94,30.20,0.2,Calm,Calm,-,N/A,Fog,Fog,0,2012-03-19 05:35:00
1:47 AM,55.4,55.4,100,30.20,2.0,WNW,3.5,-,N/A,,Partly Cloudy,290,2012-03-19 05:47:00
1:54 AM,55.9,55.0,97,30.20,3.0,Calm,Calm,-,N/A,,Partly Cloudy,0,2012-03-19 05:54:00
2:01 AM,55.4,55.4,100,30.20,2.5,Calm,Calm,-,N/A,,Partly Cloudy,0,2012-03-19 06:01:00
2:16 AM,55.4,55.4,100,30.20,1.0,Calm,Calm,-,N/A,,Clear,0,2012-03-19 06:16:00
2:23 AM,55.4,55.4,100,30.20,0.2,Calm,Calm,-,N/A,Fog,Fog,0,2012-03-19 06:23:00
2:28 AM,55.4,55.4,100,30.20,0.2,Calm,Calm,-,N/A,Fog,Fog,0,2012-03-19 06:28:00
2:45 AM,55.4,53.6,94,30.20,0.2,Calm,Calm,-,N/A,Fog,Fog,0,2012-03-19 06:45:00
2:54 AM,55.0,55.0,100,30.19,0.2,Calm,Calm,-,N/A,Fog,Fog,0,2012-03-19 06:54:00
3:08 AM,55.4,55.4,100,30.19,1.2,Calm,Calm,-,N/A,,Overcast,0,2012-03-19 07:08:00
3:12 AM,55.4,53.6,94,30.19,0.5,Calm,Calm,-,N/A,Fog,Fog,0,2012-03-19 07:12:00
3:26 AM,53.6,53.6,100,30.19,0.2,Calm,Calm,-,N/A,Fog,Fog,0,2012-03-19 07:26:00
3:37 AM,55.4,55.4,100,30.19,1.2,Calm,Calm,-,N/A,,Overcast,0,2012-03-19 07:37:00
3:39 AM,55.4,55.4,100,30.19,0.8,Calm,Calm,-,N/A,,Mist,0,2012-03-19 07:39:00
3:54 AM,55.0,55.0,100,30.18,0.2,Calm,Calm,-,N/A,Fog,Fog,0,2012-03-19 07:54:00
4:18 AM,53.6,53.6,100,30.18,1.2,Calm,Calm,-,N/A,,Partly Cloudy,0,2012-03-19 08:18:00
4:24 AM,53.6,53.6,100,30.18,2.0,Calm,Calm,-,N/A,,Partly Cloudy,0,2012-03-19 08:24:00
4:32 AM,53.6,53.6,100,30.18,1.5,Calm,Calm,-,N/A,,Clear,0,2012-03-19 08:32:00
4:35 AM,53.6,53.6,100,30.18,0.8,Calm,Calm,-,N/A,,Clear,0,2012-03-19 08:35:00
4:56 AM,53.6,53.6,100,30.18,1.5,Calm,Calm,-,N/A,,Clear,0,2012-03-19 08:56:00
5:03 AM,53.6,53.6,100,30.18,1.8,Calm,Calm,-,N/A,,Clear,0,2012-03-19 09:03:00
5:09 AM,53.6,53.6,100,30.18,1.0,Calm,Calm,-,N/A,,Clear,0,2012-03-19 09:09:00
5:15 AM,53.6,53.6,100,30.18,0.5,Calm,Calm,-,N/A,Fog,Fog,0,2012-03-19 09:15:00
5:27 AM,51.8,51.8,100,30.18,0.5,Calm,Calm,-,N/A,Fog,Fog,0,2012-03-19 09:27:00
6:24 AM,51.8,51.8,100,30.19,1.0,Calm,Calm,-,N/A,,Mist,0,2012-03-19 10:24:00
6:29 AM,51.8,51.8,100,30.19,1.8,Calm,Calm,-,N/A,,Partly Cloudy,0,2012-03-19 10:29:00
6:37 AM,51.8,51.8,100,30.20,2.0,Calm,Calm,-,N/A,,Clear,0,2012-03-19 10:37:00
6:41 AM,51.8,51.8,100,30.20,1.8,Calm,Calm,-,N/A,,Partly Cloudy,0,2012-03-19 10:41:00
6:43 AM,51.8,51.8,100,30.20,1.0,Calm,Calm,-,N/A,,Mist,0,2012-03-19 10:43:00
6:50 AM,51.8,51.8,100,30.20,0.8,Calm,Calm,-,N/A,,Mist,0,2012-03-19 10:50:00
6:54 AM,52.0,51.1,97,30.20,1.0,WNW,3.5,-,N/A,,Mist,290,2012-03-19 10:54:00
7:03 AM,51.8,51.8,100,30.20,1.8,Calm,Calm,-,N/A,,Mostly Cloudy,0,2012-03-19 11:03:00
7:07 AM,51.8,51.8,100,30.20,1.0,Calm,Calm,-,N/A,,Mist,0,2012-03-19 11:07:00
7:14 AM,53.6,51.8,94,30.20,0.2,Calm,Calm,-,N/A,Fog,Fog,0,2012-03-19 11:14:00
8:29 AM,55.4,55.4,100,30.21,1.2,Calm,Calm,-,N/A,,Mostly Cloudy,0,2012-03-19 12:29:00
8:35 AM,55.4,55.4,100,30.21,1.8,Calm,Calm,-,N/A,,Scattered Clouds,0,2012-03-19 12:35:00
8:44 AM,57.2,55.4,94,30.22,2.0,Calm,Calm,-,N/A,,Partly Cloudy,0,2012-03-19 12:44:00
8:54 AM,57.9,57.0,97,30.22,2.5,Calm,Calm,-,N/A,,Clear,0,2012-03-19 12:54:00
9:07 AM,59.0,59.0,100,30.22,3.0,Calm,Calm,-,N/A,,Partly Cloudy,0,2012-03-19 13:07:00
9:54 AM,66.0,63.0,90,30.22,2.5,Calm,Calm,-,N/A,,Clear,0,2012-03-19 13:54:00
10:01 AM,66.2,62.6,88,30.22,4.0,Calm,Calm,-,N/A,,Clear,0,2012-03-19 14:01:00
10:54 AM,71.1,63.0,75,30.22,5.0,Calm,Calm,-,N/A,,Haze,0,2012-03-19 14:54:00
11:54 AM,75.0,62.1,64,30.21,8.0,Calm,Calm,-,N/A,,Clear,0,2012-03-19 15:54:00
12:54 PM,78.1,61.0,56,30.20,10.0,East,4.6,-,N/A,,Partly Cloudy,90,2012-03-19 16:54:00
1:54 PM,73.0,62.1,68,30.18,6.0,NNE,16.1,23.0,0.01,Rain,Light Rain,30,2012-03-19 17:54:00
2:54 PM,75.9,64.0,67,30.16,9.0,East,9.2,17.3,0.00,,Clear,90,2012-03-19 18:54:00
3:54 PM,75.0,61.0,62,30.14,10.0,East,5.8,-,N/A,,Clear,90,2012-03-19 19:54:00
4:54 PM,75.0,62.1,64,30.14,10.0,SSE,5.8,-,N/A,,Clear,150,2012-03-19 20:54:00
5:54 PM,75.0,62.1,64,30.12,10.0,SE,5.8,-,N/A,,Clear,130,2012-03-19 21:54:00
6:54 PM,71.1,61.0,70,30.13,10.0,Calm,Calm,-,N/A,,Clear,0,2012-03-19 22:54:00
7:54 PM,68.0,60.1,76,30.14,10.0,Calm,Calm,-,N/A,,Clear,0,2012-03-19 23:54:00
8:54 PM,64.0,60.1,87,30.15,9.0,South,3.5,-,N/A,,Clear,180,2012-03-20 00:54:00
9:54 PM,63.0,59.0,87,30.16,10.0,Calm,Calm,-,N/A,,Clear,0,2012-03-20 01:54:00
10:54 PM,61.0,57.9,90,30.17,10.0,South,3.5,-,N/A,,Clear,170,2012-03-20 02:54:00
11:54 PM,59.0,57.0,93,30.18,10.0,Calm,Calm,-,N/A,,Clear,0,2012-03-20 03:54:00